WIF8F ENBR-ENCN

Flight info

Callsign WIF8F
Flight time N/A
Altitude 23000
Route TUXIL DCT PEVEB
Aircraft DH8B/M-SDFGR/S

Departure

Time N/A
Airport Bergen Airport, Flesland (ENBR)

Arrival

Time 2026-04-22 09:44
Airport Kristiansand Airport (ENCN)
Time Latitude Longitude Altitude Speed Heading
2026-04-22 09:33 58.58075 7.21975 22887 ft 300 kts 129°
2026-04-22 09:33 58.56652 7.24915 22327 ft 298 kts 130°
2026-04-22 09:34 58.55246 7.27821 21755 ft 296 kts 130°
2026-04-22 09:34 58.53848 7.30718 21220 ft 295 kts 130°
2026-04-22 09:34 58.52458 7.33587 20687 ft 293 kts 130°
2026-04-22 09:35 58.49695 7.39276 19666 ft 291 kts 130°
2026-04-22 09:35 58.48317 7.42110 19165 ft 289 kts 130°
2026-04-22 09:35 58.46965 7.44884 18683 ft 288 kts 131°
2026-04-22 09:35 58.45599 7.47686 18140 ft 287 kts 131°
2026-04-22 09:36 58.44309 7.50568 17607 ft 282 kts 118°
2026-04-22 09:36 58.43660 7.53999 17064 ft 272 kts 95°
2026-04-22 09:36 58.43470 7.57565 16554 ft 269 kts 93°
2026-04-22 09:36 58.43123 7.61069 16049 ft 269 kts 102°
2026-04-22 09:37 58.42557 7.64472 15547 ft 267 kts 105°
2026-04-22 09:37 58.42005 7.67789 15064 ft 264 kts 103°
2026-04-22 09:37 58.41519 7.71145 14578 ft 261 kts 101°
2026-04-22 09:37 58.41085 7.74500 14100 ft 259 kts 101°
2026-04-22 09:38 58.40632 7.77805 13567 ft 257 kts 102°
2026-04-22 09:38 58.40157 7.81085 13041 ft 255 kts 102°
2026-04-22 09:38 58.39700 7.84334 12523 ft 252 kts 102°
2026-04-22 09:38 58.39253 7.87517 12014 ft 251 kts 105°
2026-04-22 09:39 58.38404 7.90420 11491 ft 253 kts 126°
2026-04-22 09:39 58.37295 7.93007 11010 ft 251 kts 127°
2026-04-22 09:39 58.36283 7.95686 10516 ft 247 kts 117°
2026-04-22 09:39 58.35790 7.98754 10012 ft 240 kts 89°
2026-04-22 09:40 58.35910 8.01900 9486 ft 236 kts 82°
2026-04-22 09:40 58.35879 8.05033 8957 ft 237 kts 95°
2026-04-22 09:40 58.35479 8.08075 8453 ft 238 kts 106°
2026-04-22 09:40 58.34863 8.10954 7962 ft 238 kts 114°
2026-04-22 09:41 58.33878 8.13468 7453 ft 239 kts 139°
2026-04-22 09:41 58.32459 8.15093 6964 ft 238 kts 159°
2026-04-22 09:41 58.30861 8.15867 6463 ft 236 kts 168°
2026-04-22 09:41 58.29287 8.16725 5960 ft 234 kts 162°
2026-04-22 09:42 58.27696 8.17135 5449 ft 230 kts 191°
2026-04-22 09:42 58.26248 8.16180 5340 ft 212 kts 211°
2026-04-22 09:42 58.25105 8.14656 5320 ft 196 kts 222°
2026-04-22 09:42 58.24004 8.13098 5060 ft 201 kts 216°
2026-04-22 09:43 58.23910 8.13044 2038 ft 0 kts 214°
2026-04-22 09:43 58.23340 8.12378 1507 ft 1405 kts 215°
2026-04-22 09:43 58.23683 8.12861 1178 ft 164 kts 216°
2026-04-22 09:43 58.22775 8.11675 797 ft 149 kts 215°
2026-04-22 09:44 58.21957 8.10589 393 ft 139 kts 215°
2026-04-22 09:44 58.21205 8.09575 121 ft 126 kts 214°
2026-04-22 09:44 58.20587 8.08759 63 ft 63 kts 215°
2026-04-22 09:44 58.20418 8.08521 61 ft 16 kts 244°
2026-04-22 09:45 58.20456 8.08314 57 ft 19 kts 304°
2026-04-22 09:45 58.20450 8.08103 61 ft 17 kts 232°
2026-04-22 09:45 58.20376 8.07920 59 ft 18 kts 232°
2026-04-22 09:45 58.20306 8.07751 61 ft 15 kts 230°
2026-04-22 09:46 58.20230 8.07650 60 ft 12 kts 212°
2026-04-22 09:46 58.20209 8.07547 60 ft 8 kts 304°
2026-04-22 09:46 58.20216 8.07524 61 ft 0 kts 302°